Location: Julian California
(33.0790°N, 116.6010°W)
Time: 21:15:24
(UTC-07:00)

Cosmos 1809 Rocket - Pass Details

Date: 12 July 2018
Orbit: 941 x 963 km, 82.5° (Epoch: 20 July)

Event Time Altitude Azimuth Distance (km) Brightness Sun altitude
Rises 21:29:03 0° 356° (N) 3,624 8.2 -16.8°
Reaches altitude 10° 21:31:34 10° 359° (N) 2,678 7.4 -17.2°
Maximum altitude 21:37:41 68° 83° (E) 1,020 4.4 -18.1°
Enters shadow 21:41:08 27° 159° (SSE) 1,738 5.3 -18.7°
